Location: Brno
(49.2000°N, 16.6330°E)
Time: 07:24:10
(UTC+02:00)

ISS - Visible Passes

Search period start: 30 July 2016 00:00
Search period end: 09 August 2016 00:00
Orbit: 401 x 404 km, 51.6° (Epoch: 29 July)

Date Brightness Start Highest point End Pass type
(mag) Time Alt. Az. Time Alt. Az. Time Alt. Az.
30 Jul -1.3 01:07:47 10° WNW 01:09:02 21° WNW 01:09:02 21° WNW visible
30 Jul -2.9 22:38:07 10° W 22:41:23 64° NNW 22:44:37 10° ENE visible
31 Jul -2.6 00:14:49 10° WNW 00:17:41 53° NNW 00:17:41 53° NNW visible
31 Jul -3.3 21:45:08 10° WSW 21:48:23 81° NNW 21:51:40 10° ENE visible
31 Jul -2.6 23:21:49 10° WNW 23:25:02 53° N 23:26:21 30° ENE visible
01 Aug -0.7 00:58:20 10° WNW 00:58:56 14° WNW 00:58:56 14° WNW visible
01 Aug -2.6 22:28:47 10° W 22:32:00 54° N 22:35:03 11° ENE visible
02 Aug -2.2 00:05:23 10° WNW 00:07:38 41° WNW 00:07:38 41° WNW visible
02 Aug -2.8 21:35:45 10° W 21:38:58 60° NNW 21:42:13 10° ENE visible
02 Aug -2.9 23:12:25 10° WNW 23:15:39 61° N 23:16:21 46° ENE visible
03 Aug -0.4 00:48:55 10° WNW 00:48:56 10° WNW 00:48:56 10° WNW visible
03 Aug -2.7 22:19:25 10° WNW 22:22:38 54° N 22:25:06 16° E visible
03 Aug -1.7 23:55:55 10° WNW 23:57:41 29° W 23:57:41 29° W visible
04 Aug -2.6 21:26:23 10° W 21:29:36 53° N 21:32:48 10° ENE visible
04 Aug -3.4 23:02:58 10° WNW 23:06:14 82° NNE 23:06:26 76° ENE visible
05 Aug -3.0 22:10:00 10° WNW 22:13:14 64° NNE 22:15:12 22° E visible
05 Aug -1.2 23:46:31 10° WNW 23:47:47 20° W 23:47:47 20° W visible
06 Aug -2.7 21:16:59 10° WNW 21:20:13 55° N 21:23:26 10° E visible
06 Aug -3.3 22:53:29 10° WNW 22:56:35 62° SW 22:56:35 62° SW visible
07 Aug -3.4 22:00:30 10° WNW 22:03:47 89° NE 22:05:24 27° ESE visible
07 Aug -0.7 23:37:19 10° W 23:37:59 14° W 23:37:59 14° W visible
08 Aug -3.1 21:07:32 10° WNW 21:10:48 68° NNE 21:14:03 10° E visible
08 Aug -2.3 22:44:06 10° W 22:46:49 34° SW 22:46:49 34° SW visible
